Weather Roundup
Issued by NWS

Home | Current Version | Previous Version | Text Only | Print | Product List | Glossary On
Versions: 1 2 3 4 5 6 7 8 9 10 11 12 13 14 15 16 17 18 19 20 21 22 23 24 25 26 27 28 29 30 31 32 33 34 35 36 37 38 39 40 41 42 43 44 45 46 47 48 49 50
000
NZUS93 KARX 220559
HRRWXR

CURRENT HOURLY OBSERVATIONS ACROSS
MUCH OF THE UPPER MISSISSIPPI VALLEY
NATIONAL WEATHER SERVICE LA CROSSE WI
1200 AM CST SUN JAN 22 2017


...SOUTHEAST MINNESOTA...


CITY           SKY/WX    TMP DP  RH WIND       PRES   REMARKS
ROCHESTER      CLOUDY    34  34 100 W10       29.53S WCI  26
ROCHESTER/MAYO CLOUDY    36  36 100 W8        29.54R WCI  29
WINONA         CLOUDY    36  36 100 CALM      29.55R FOG
AUSTIN           N/A     34  34 100 SW3       29.54R FOG
ALBERT LEA     CLOUDY    32  32 100 SW6       29.53S FOG     WCI  26
DODGE CENTER   FOG       34  34 100 CALM      29.53R VSB 3/4
PRESTON        CLOUDY    34  33  97 SW7       29.54S FOG     WCI  28
OWATONNA       FOG       34  32  93 W3        29.54S VSB 3/4
FARIBAULT      NOT AVBL
$$

...ELSEWHERE IN MINNESOTA...


CITY           SKY/WX    TMP DP  RH WIND       PRES   REMARKS
MINNEAPOLIS    DRZL/FOG  36  35  96 N6        29.55R VSB 1/4 WCI  31
INTNL FALLS    FOG       34  33  96 NE3       29.57S VSB 1/4
DULUTH         CLOUDY    35  34  96 N6        29.53S WCI  30
RED WING       FOG       36  34  93 CALM      29.54R VSB 1/2
REDWOOD FALLS  FOG       34  32  92 NW5       29.56R VSB 1/4 WCI  30
MANKATO        FOG       34  34 100 W5        29.55R VSB 1/4 WCI  30
WORTHINGTON    CLOUDY    32  31  96 W9        29.56  FOG     WCI  24
FAIRMONT       CLOUDY    33  32  96 W8        29.55S FOG     WCI  26
$$

...SOUTHWEST WISCONSIN...


CITY           SKY/WX    TMP DP  RH WIND       PRES   REMARKS
LA CROSSE      CLOUDY    40  37  89 S7        29.55R
PRAIRIE DU CHI FOG       35  35  96 CALM      29.56S VSB 1/4
BOSCOBEL       FOG       37  37 100 CALM      29.57S VSB 1/2
LONE ROCK      FOG       38  37  97 CALM      29.57S VSB 1/2
PLATTEVILLE    CLOUDY    38  38 100 S5        29.57S VSB 1/4 WCI  34
FORT MC COY    CLOUDY    38  38 100 CALM      29.55S
CAMP DOUGLAS   CLOUDY    39  39 100 CALM      29.54S FOG
MAUSTON-NEW LI CLOUDY    40  40 100 CALM      29.54S FOG
VIROQUA        CLOUDY    36  36 100 SW5       29.54S VSB 1/4 WCI  32
WIS DELLS      FOG       38  38  99 CALM      29.55F VSB 1/4
$$

...ELSEWHERE IN WISCONSIN...


CITY           SKY/WX    TMP DP  RH WIND       PRES   REMARKS
MILWAUKEE      MOCLDY    44  39  82 SW7       29.58F
MADISON        CLOUDY    41  40  96 CALM      29.57F FOG
GREEN BAY      FOG       38  38 100 S3        29.55R VSB 1/4
EAU CLAIRE     FOG       34 N/A N/A CALM      29.52R VSB 1/2
BLACK RVR FLS  FOG       38  38 100 CALM      29.54R VSB 1/4
MEDFORD        FOG       33  33  99 S3        29.50S VSB 1/4
WAUSAU         FOG       35  35 100 CALM      29.51S VSB 1/4
WIS RAPIDS     FOG       38  38 100 SW7       29.54S VSB 1/4 WCI  33
MARSHFIELD     FOG       36  36 100 SW5       29.51S VSB 1/4 WCI  32
RICE LAKE      FOG       34  34 100 W3        29.53S VSB 1/2
$$

...NORTHEAST IOWA...


CITY           SKY/WX    TMP DP  RH WIND       PRES   REMARKS
WATERLOO       FOG       30  30 100 CALM      29.56S VSB 1/4
DUBUQUE        FOG       36  36 100 SW3       29.57S VSB 3/4
DECORAH        CLOUDY    37  36  93 VRB6      29.54S FOG     WCI  33
MASON CITY     CLOUDY    32  30  92 W9        29.56S WCI  24
CHARLES CITY   CLOUDY    34  34 100 SW3       29.56S FOG
OELWEIN        PTCLDY    36  34  93 CALM      29.56S FOG
$$

...ELSEWHERE IN IOWA...


CITY           SKY/WX    TMP DP  RH WIND       PRES   REMARKS
DES MOINES     FOG       31  30  96 S5        29.57S VSB<1/4 WCI  26
IOWA CITY      FOG       34  33  96 CALM      29.59F VSB 3/4
FORT DODGE     CLEAR     30  27  86 CALM      29.57S
MARSHALLTOWN   FOG       32  32 100 CALM      29.55S VSB 1/4
CEDAR RAPIDS   FOG       33  33 100 S3        29.57S VSB 3/4
$$

...NORTHERN ILLINOIS...


CITY           SKY/WX    TMP DP  RH WIND       PRES   REMARKS
CHICAGO-OHARE  FOG       42  42 100 NW6       29.59S VSB 1/2
CHICAGO-MIDWAY FOG       40  38  93 NW8       29.60R VSB 1/4 WCI  34
MOLINE         CLOUDY    43  37  79 NW6       29.58F
ROCKFORD       FOG       41  39  93 S5        29.60F VSB 1/2
PEORIA         PTCLDY    38  38 100 N5        29.59S FOG     WCI  34
$$

NOTE: "FAIR" INDICATES FEW OR NO CLOUDS BELOW 12,000 FEET WITH NO
SIGNIFICANT WEATHER AND/OR OBSTRUCTIONS TO VISIBILITY. WIND
SPEEDS ARE IN MILES-PER-HOUR.




USA.gov is the U.S. government's official web portal to all federal, state and local government web resources and services.